User: anonymous   Login
Location: Unspecified
(0.0000°N, 0.0000°E)
Time: 23:02:17
(UTC+00:00)
Language:

GRACE-FO 1 - Orbit

View from above orbital plane
View from above orbital plane
View from above satellite
View from above satellite

Ground track
Ground track

The orbit data is extracted from the following two-line orbital elements,

1 43476U 18047A   19203.69844905 -.00000284  00000-0 -11698-4 0    02
2 43476  88.9998 182.1428 0020541  91.4221 348.1576 15.23887939 64856
Epoch (UTC): 22 July 2019 16:45:45
Eccentricity: 0.0020541
inclination: 88.9998°
perigee height: 480 km
apogee height: 508 km
right ascension of ascending node: 182.1428°
argument of perigee: 91.4221°
revolutions per day: 15.23887939
mean anomaly at epoch: 348.1576°
orbit number at epoch: 6485

The dashed part of the orbit path shows where the satellite is in the earth's shadow,  

DLR